#timestamp,LO_Frequency,Hit,StdDev 
1514682015.8,286046998.2,N
1514682035.6,286047001.2,N
1514682055.5,286046998.8,N
1514682075.3,286046996.5,Y
1514682095.1,286046998.2,P
1514682115.9,286047000.8,N
1514682135.7,286047001.2,N
1514682155.6,286047001.2,N
1514682175.4,286047001.2,N
1514682195.2,286047001.2,N
1514682215.1,286046999.8,N
1514682216.0,286046999.8,N
1514682235.8,286047000.5,N
1514682255.6,286047001.0,N
1514682275.5,286047001.1,N
1514682295.3,286047000.9,N
1514682315.2,286047002.2,N
1514682335.9,286047000.4,N
1514682355.7,286047000.7,N
1514682375.6,286046999.9,N
1514682395.4,286047002.3,N
1514682415.2,286047002.1,N
1514682435.1,286047001.7,N
1514682436.0,286047001.7,N
1514682455.8,286047001.6,N
1514682475.7,286046999.7,N
1514682495.5,286046999.7,N
1514682515.3,286047000.1,N
1514682535.2,286047002.0,N
1514682555.0,286047002.4,N
1514682555.9,286047002.4,N
1514682575.8,286046999.8,N
1514682595.6,286047000.5,N
1514682615.4,286047000.1,N
1514682635.3,286047002.3,N
1514682655.1,286047002.1,N
1514682675.8,286047002.3,N
1514682695.7,286047002.8,N
1514682715.5,286046999.9,N
1514682735.4,286046998.2,N
1514682755.2,286046998.5,N
1514682775.0,286046998.1,N
1514682775.9,286046998.1,N
1514682795.8,286047000.6,N
1514682815.6,286047000.0,N
1514682835.4,286047000.9,N
1514682855.3,286047000.7,N
1514682875.1,286046998.1,N
1514682895.9,286047001.1,N
1514682915.7,286046998.6,N
1514682935.5,286047001.1,N
1514682955.4,286047000.8,N
1514682975.2,286046998.5,N
1514682995.0,286047000.9,N
1514682995.9,286047000.9,N
1514683015.8,286046999.8,N
1514683035.6,286047000.4,N
1514683055.5,286046999.4,N
1514683075.3,286046999.6,N
1514683095.1,286046996.7,N
1514683115.9,286046996.6,N
1514683135.7,286046999.0,N
1514683155.6,286046999.5,N
1514683175.4,286046996.9,N
1514683195.2,286046997.1,N
1514683215.1,286046999.2,N
1514683216.0,286046999.2,N
1514683235.8,286046997.0,N
1514683255.6,286046997.0,N
1514683275.5,286047000.7,N
1514683295.3,286046999.1,N
1514683315.2,286046997.5,N
1514683335.9,286046995.1,Y
1514683355.7,286046996.6,P
1514683375.6,286046996.6,N
1514683395.4,286046997.7,N
1514683415.2,286046997.4,N
1514683435.1,286046995.1,Y
1514683436.0,286046995.1,P
1514683455.8,286046999.2,N
1514683475.7,286046999.5,N
1514683495.5,286046999.0,N
1514683515.3,286046996.9,N
1514683535.2,286046996.7,N
1514683555.0,286046996.9,N
1514683555.9,286046996.9,N
1514683575.8,286046998.7,N
1514683595.6,286046999.3,N
1514683615.4,286046996.6,N
1514683635.3,286046997.2,N
1514683655.1,286046997.8,N
1514683675.8,286046997.1,N
1514683695.7,286046997.3,N
1514683715.5,286046997.7,N
1514683735.4,286046997.9,N
1514683755.2,286046997.8,N
1514683775.0,286046997.3,N
1514683775.9,286046997.3,N
1514683795.8,286046996.6,Y
1514683815.6,286047000.5,P
1514683835.5,286047000.8,N
1514683855.3,286046998.6,N
1514683875.1,286046998.7,N
1514683895.9,286046999.2,N
1514683915.7,286046996.8,N
1514683935.5,286046999.5,N
1514683955.4,286046999.4,N
1514683975.2,286046996.5,N
1514683995.1,286046996.9,N
1514683996.0,286046996.9,N
1514684015.8,286046996.9,N
1514684035.6,286047001.1,N
1514684055.5,286047001.1,N
1514684075.3,286046998.4,N
1514684095.1,286046998.3,N
1514684115.9,286046998.8,N
1514684135.7,286046999.1,N
1514684155.6,286046997.7,N
1514684175.4,286046997.4,N
1514684195.2,286046997.7,N
1514684215.1,286046997.7,N
1514684216.0,286046997.7,N
1514684235.8,286046998.0,N
1514684255.7,286046997.6,N
1514684275.5,286046997.6,N
1514684295.3,286046996.7,N
1514684315.2,286046998.0,N
1514684335.0,286046998.0,N
1514684335.9,286046998.0,N
1514684355.7,286046997.5,N
1514684375.6,286046997.2,N
1514684395.4,286046997.3,N
1514684415.3,286046997.3,N
1514684435.1,286046997.9,N
1514684436.0,286046997.9,N
1514684455.8,286046996.8,N
1514684475.7,286046997.2,N
1514684495.5,286046997.0,N
1514684515.4,286046997.7,N
1514684535.2,286046997.4,N
1514684555.0,286046997.4,N
1514684555.9,286046997.4,N
1514684575.8,286046997.9,N
1514684595.6,286046997.5,Y
1514684615.4,286046999.0,P
1514684635.3,286046999.6,N
1514684655.1,286046997.1,P
1514684675.9,286046999.6,N
1514684695.7,286046999.2,N
1514684715.5,286046999.6,N
1514684735.4,286046998.9,N
1514684755.2,286047001.1,N
1514684775.0,286046998.9,N
1514684776.0,286046998.9,N
1514684795.8,286046999.3,N
1514684815.6,286046999.2,N
1514684835.5,286046999.4,N
1514684855.3,286046999.4,N
1514684875.1,286046996.7,Y
1514684895.9,286046999.3,P
1514684915.7,286046999.2,P
1514684935.6,286046999.2,P
1514684955.4,286046996.6,Y
1514684975.2,286046998.8,P
1514684995.1,286046999.3,P
1514684996.0,286046999.3,P
1514685015.8,286046999.5,N
1514685035.6,286046997.0,Y
1514685055.5,286046998.3,P
1514685075.3,286046998.9,N
1514685095.2,286046999.0,N
1514685115.9,286046998.5,Y
1514685135.7,286047000.7,P
1514685155.6,286047000.0,N
1514685175.4,286046999.7,N
1514685195.3,286046999.8,N
1514685215.1,286047000.4,N
1514685216.0,286047000.4,N
1514685235.8,286046998.4,N
1514685255.7,286046998.7,N
1514685275.5,286047001.1,N
1514685295.3,286046998.7,N
1514685315.2,286047000.8,N
1514685335.0,286046998.7,N
1514685335.9,286046998.7,N
1514685355.8,286046998.4,N
1514685375.6,286046998.7,N
1514685395.4,286047000.7,N
1514685415.3,286046998.6,N
1514685435.1,286046998.1,N
1514685455.9,286047001.0,N
1514685475.7,286047000.6,N
1514685495.5,286047001.2,N
1514685515.4,286046998.7,N
1514685535.2,286046999.4,N
1514685555.1,286046999.2,N
1514685556.0,286046999.2,N
1514685575.8,286046999.2,N
1514685595.6,286046998.8,N
